DateTimeUTC,F1_A11,F1_S11,BsB_S11,BsG_S11,BsR_S11,BbsB_S11,BbsG_S11,BbsR_S11,BaB_A11,BaG_A11,BaR_A11,Tu_S11,T_S11,Uu_S11,U_S11,P_S11,T1_A11
2021-12-16T18:00:00Z,00000200,21000000,,,,,,,-000.21,0000.07,0000.17,20.4,27.3,,00.0,0641.5,31.2
2021-12-16T18:01:00Z,00000200,21000000,,,,,,,-000.20,-000.25,-000.04,20.4,27.3,,00.0,0641.5,31.1
2021-12-16T18:02:00Z,00000200,21000000,,,,,,,0000.14,0000.29,-000.14,20.3,27.3,,00.0,0641.4,31.1
2021-12-16T18:03:00Z,00000200,61000000,,,,,,,0000.15,-000.09,0000.33,20.3,27.3,,00.0,0641.4,31.1
2021-12-16T18:04:00Z,00000200,41000000,-000.47,-000.12,-000.06,0000.62,0000.01,0000.38,-000.11,0000.16,-000.07,20.4,27.1,,00.0,0642.2,31.1
2021-12-16T18:05:00Z,00000200,01000000,-000.20,0000.37,0000.28,-000.03,0000.07,0000.35,-000.07,0000.05,-000.14,20.5,27.0,,00.0,0642.3,31.1
2021-12-16T18:06:00Z,00000200,01000000,-000.08,-000.10,0000.06,0000.03,0000.25,0000.49,0000.46,-000.03,0000.17,20.5,27.1,,00.0,0642.3,31.1
2021-12-16T18:07:00Z,00000200,01000000,0000.58,-000.09,-000.13,0000.42,0000.03,0000.37,-000.22,0000.32,-000.07,20.5,27.1,,00.0,0642.2,31.1
2021-12-16T18:08:00Z,00000200,01000000,-000.17,0000.48,0000.28,0000.35,-000.29,0000.27,0000.25,-000.29,-000.15,20.6,27.1,,00.0,0642.2,31.2
2021-12-16T18:09:00Z,00000200,01000000,-000.31,0000.06,0000.18,-000.25,0000.07,0000.01,-000.12,0000.03,0000.33,20.6,27.1,,00.0,0642.2,31.2
2021-12-16T18:10:00Z,00000200,01000000,-000.13,0000.25,0000.07,-000.14,0000.17,0000.16,0000.06,0000.09,0000.02,20.7,27.1,,00.0,0642.2,31.2
2021-12-16T18:11:00Z,00000200,01000000,0000.16,0000.32,0000.08,0000.11,0000.19,0000.12,-000.02,0000.05,-000.07,20.7,27.1,,00.0,0642.1,31.2
2021-12-16T18:12:00Z,00000200,01000000,0000.60,0000.14,0000.49,0000.64,-000.02,0000.22,0000.09,0000.29,0000.05,20.8,27.1,,00.0,0642.1,31.2
2021-12-16T18:13:00Z,00000200,01000000,-000.18,0000.40,0000.18,-000.15,-000.12,0000.07,0000.37,0000.13,0000.39,20.8,27.1,,00.0,0642.1,31.2
2021-12-16T18:14:00Z,00000200,01000000,-000.56,0000.31,0000.17,0000.04,-000.03,0000.02,-000.07,-000.11,-000.28,20.8,27.2,,00.0,0642.0,31.2
2021-12-16T18:15:00Z,00000200,01000000,-000.47,0000.18,-000.00,0000.22,0000.15,-000.18,0000.01,0000.09,0000.03,20.8,27.2,,00.0,0642.0,31.2
2021-12-16T18:16:00Z,00000200,01000000,0000.26,-000.20,-000.00,0000.35,0000.10,0000.16,0000.16,-000.26,0000.06,20.8,27.2,,00.0,0642.0,31.2
2021-12-16T18:17:00Z,00000200,01000000,-000.14,0000.01,0000.18,0000.28,0000.34,-000.18,-000.13,0000.32,0000.14,20.8,27.1,,00.0,0641.9,31.2
2021-12-16T18:18:00Z,00000200,01000000,-000.42,0000.24,0000.16,-000.09,0000.03,0000.45,0000.30,-000.09,0000.24,20.7,27.1,,00.0,0641.9,31.2
2021-12-16T18:19:00Z,00000200,01000000,0000.11,0000.21,0000.21,0000.41,0000.24,0000.16,0000.08,-000.16,-000.29,20.7,27.1,,00.0,0641.9,31.2
2021-12-16T18:20:00Z,00000200,01000000,-000.29,0000.13,0000.01,0000.65,-000.12,0000.04,-000.37,0000.43,-000.07,20.8,27.1,,00.0,0641.9,31.2
2021-12-16T18:21:00Z,00000200,01000000,-000.45,0000.13,0000.16,0000.32,-000.02,0000.14,0000.35,-000.23,0000.07,20.8,27.1,,00.0,0641.9,31.2
2021-12-16T18:22:00Z,00000200,01000000,-000.09,0000.29,0000.41,0000.76,0000.17,0000.25,0000.52,0000.24,0000.22,20.8,27.1,,00.0,0641.9,31.2
2021-12-16T18:23:00Z,00000200,01000000,0000.11,0000.14,-000.11,0000.00,-000.05,0000.41,-000.30,0000.51,0000.27,20.8,27.2,,00.0,0642.0,31.2
2021-12-16T18:24:00Z,00000200,01000000,-000.57,0000.10,0000.19,0000.28,0000.30,0000.03,-000.15,-000.27,-000.36,20.9,27.2,,00.0,0641.9,31.2
2021-12-16T18:25:00Z,00000200,01000000,0000.78,0000.07,0000.15,-000.23,0000.13,0000.20,0000.71,0000.20,0000.62,20.9,27.2,,00.0,0641.9,31.2
2021-12-16T18:26:00Z,00000200,01000000,0000.02,-000.04,0000.37,0000.14,-000.10,0000.35,-000.11,0000.23,-000.44,20.9,27.2,,00.0,0641.9,31.2
2021-12-16T18:27:00Z,00000200,01000000,-000.19,0000.24,0000.40,0000.03,0000.02,0000.41,-000.06,0000.11,0000.31,20.9,27.2,,00.0,0642.0,31.2
2021-12-16T18:28:00Z,00000200,01000000,-000.02,0000.12,0000.04,0000.27,-000.00,0000.13,0000.38,0000.20,0000.23,20.9,27.2,,00.0,0641.9,31.2
2021-12-16T18:29:00Z,00000200,01000000,-000.58,0000.49,0000.25,-000.54,0000.25,0000.25,-000.22,-000.02,0000.12,21.0,27.2,,00.0,0641.9,31.2
2021-12-16T18:30:00Z,00000200,01000000,0000.82,0000.12,-000.14,-000.04,0000.24,-000.36,0000.06,-000.05,-000.02,21.0,27.3,,00.0,0641.9,31.2
2021-12-16T18:31:00Z,00000200,01000000,-000.09,-000.16,0000.06,-000.33,-000.02,0000.14,-000.02,-000.18,0000.03,21.0,27.3,,00.0,0641.8,31.2
2021-12-16T18:32:00Z,00000200,01000000,-000.22,0000.20,0000.70,0000.50,0000.05,0000.38,-000.24,-000.38,-000.52,20.9,27.3,,00.0,0641.8,31.2
2021-12-16T18:33:00Z,00000200,01000000,-000.34,0000.16,0000.17,-000.06,0000.11,0000.46,-000.14,0000.28,0000.23,20.9,27.3,,00.0,0641.9,31.2
2021-12-16T18:34:00Z,00000200,01000000,0000.02,-000.05,0000.21,0000.42,0000.40,-000.01,0000.19,0000.05,0000.04,20.9,27.3,,00.0,0641.9,31.2
2021-12-16T18:35:00Z,00000200,01000000,-000.80,-000.08,-000.04,-000.19,0000.08,0000.12,0000.03,-000.22,-000.02,20.9,27.3,,00.0,0641.9,31.2
2021-12-16T18:36:00Z,00000200,01000000,0000.31,0000.03,0000.07,-000.55,-000.11,-000.18,0000.04,-000.02,0000.02,21.0,27.3,,00.0,0641.9,31.2
2021-12-16T18:37:00Z,00000200,01000000,-000.15,0000.24,-000.01,0000.30,0000.32,0000.24,-000.20,0000.30,-000.23,21.0,27.3,,00.0,0641.9,31.2
2021-12-16T18:38:00Z,00000200,01000000,0000.06,0000.06,0000.00,0000.25,-000.37,0000.17,0000.05,-000.08,0000.10,21.0,27.3,,00.0,0641.9,31.2
2021-12-16T18:39:00Z,00000200,01000000,-000.05,0000.08,-000.30,-000.16,0000.05,-000.09,-000.37,-000.22,-000.12,21.0,27.3,,00.0,0641.9,31.2
2021-12-16T18:40:00Z,00000200,01000000,-000.28,0000.19,0000.32,0000.23,0000.17,0000.38,0000.09,-000.13,0000.29,21.0,27.3,,00.0,0642.0,31.2
2021-12-16T18:41:00Z,00000200,01000000,-000.30,0000.23,0000.12,0000.24,0000.02,0000.12,-000.20,-000.14,-000.36,21.1,27.3,,00.0,0642.0,31.2
2021-12-16T18:42:00Z,00000200,01000000,0000.01,-000.01,-000.08,0000.43,0000.51,-000.20,-000.07,0000.05,0000.05,21.1,27.3,,00.0,0641.9,31.2
2021-12-16T18:43:00Z,00000200,01000000,0000.23,0000.17,0000.06,0000.42,0000.09,-000.13,0000.02,-000.23,0000.03,21.1,27.4,,00.0,0641.9,31.2
2021-12-16T18:44:00Z,00000200,01000000,-000.15,0000.28,-000.08,0000.13,-000.08,0000.23,0000.27,0000.26,-000.14,21.1,27.4,,00.0,0641.9,31.2
2021-12-16T18:45:00Z,00000200,01000000,-000.31,0000.24,-000.35,0000.20,0000.04,0000.15,-000.06,-000.04,-000.02,21.1,27.4,,00.0,0641.9,31.2
2021-12-16T18:46:00Z,00000200,01000000,-000.41,-000.04,0000.14,-000.14,0000.16,0000.17,-000.20,-000.13,-000.29,21.1,27.4,,00.0,0642.0,31.2
2021-12-16T18:47:00Z,00000200,01000000,-000.53,0000.39,-000.03,0000.23,0000.23,0000.03,-000.21,-000.16,0000.35,21.2,27.4,,00.0,0642.0,31.2
2021-12-16T18:48:00Z,00000200,01000000,-000.48,0000.19,-000.32,-000.11,0000.10,-000.18,-000.00,-000.38,-000.15,21.1,27.4,,00.0,0641.9,31.2
2021-12-16T18:49:00Z,00000200,01000000,-000.21,0000.09,0000.13,0000.24,-000.09,0000.18,-000.55,0000.22,-000.41,21.1,27.4,,00.0,0641.9,31.2
2021-12-16T18:50:00Z,00000200,01000000,0000.24,0000.19,0000.14,0000.34,0000.27,0000.27,0000.43,-000.13,-000.01,21.1,27.4,,00.0,0642.0,31.2
2021-12-16T18:51:00Z,00000200,01000000,0000.30,0000.11,0000.09,-000.02,0000.15,0000.57,-000.08,-000.21,0000.14,21.1,27.4,,00.0,0642.0,31.2
2021-12-16T18:52:00Z,00000200,01000000,-000.55,0000.02,0000.12,-000.05,-000.00,-000.07,0000.09,0000.14,0000.02,21.1,27.4,,00.0,0642.0,31.2
2021-12-16T18:53:00Z,00000200,01000000,-000.33,-000.02,0000.11,-000.23,0000.10,0000.28,-000.22,-000.02,0000.13,21.2,27.4,,00.0,0642.0,31.2
2021-12-16T18:54:00Z,00000200,01000000,0000.27,0000.26,0000.29,-000.05,0000.04,0000.21,-000.17,-000.06,-000.10,21.2,27.4,,00.0,0641.9,31.2
2021-12-16T18:55:00Z,00000200,01000000,-000.53,0000.24,0000.15,0000.27,0000.14,0000.21,-000.07,0000.20,-000.14,21.2,27.4,,00.0,0642.0,31.2
2021-12-16T18:56:00Z,00000200,01000000,-000.95,-000.11,-000.10,0000.78,0000.07,0000.25,0000.16,-000.05,0000.08,21.2,27.5,,00.0,0641.9,31.2
2021-12-16T18:57:00Z,00000200,41000000,,,,,,,0000.69,0000.57,0000.23,21.3,27.5,,00.0,0641.9,31.2
2021-12-16T18:58:00Z,00000200,61000000,,,,,,,-000.60,-000.33,-000.00,21.0,27.6,,00.0,0641.1,31.2
2021-12-16T18:59:00Z,00000200,21000000,,,,,,,-000.17,-000.53,-000.19,21.0,27.7,,00.0,0641.0,31.2
